Flag for Canada Weather past 2 weeks in Longueuil, Quebec, Canada

Now
61 °F

Cool.


Feels Like: 61 °F
Forecast: 53 / 72 °F
Wind: 3 mph from Northeast

Location: Mc Tavish

Current Time: Aug 29, 2014 at 9:06:11 AM

Latest Report: Aug 29, 2014 at 8:00 AM


Visibility: N/A

Pressure: 30.19 "Hg

Humidity: 72%

Dew point: 52 °F

Location of LongueuilLocation

Historic Weather in Longueuil — Graph

°F

Longueuil temperature yesterday

Maximum temperature yesterday: 68 °F (at 12:00 AM)
Minimum temperature yesterday: 62 °F (at 11:00 PM)
Average temperature yesterday: 65 °F

Past Weeks' High & Low Weather Summary

 TemperatureHumidityPressure
High84 °F (Aug 24, 5:00 PM)100% (Aug 17, 6:00 AM)30.18 "Hg (Aug 17, 6:00 AM)
Low54 °F (Aug 15, 6:00 AM)36% (Aug 24, 4:00 PM)29.71 "Hg (Aug 14, 7:00 AM)
Average68 °F68%29.96 "Hg
* Reported Aug 14 7:00 AM — Aug 29 7:00 AM, Longueuil, Weather by CustomWeather, © 2014

Note: Actual official high and low records may vary slightly from our data, if they occured in-between our weather recording intervals... More about our weather records

Advertising

Longueuil weather history for previous 24 hours

 ConditionsComfort  
Time TempWeatherWind HumidityBarometerVisibility
7:00 AM
Aug 29
58 °FCool.2 mph84%30.17 "HgN/A
6:00 AM58 °FCool.1 mph85%30.15 "HgN/A
5:00 AM59 °FCool.1 mph81%30.12 "HgN/A
4:00 AM59 °FCool.1 mph80%30.10 "HgN/A
3:00 AM60 °FCool.2 mph79%30.08 "HgN/A
2:00 AM60 °FCool.5 mph78%30.07 "HgN/A
1:00 AM61 °FCool.6 mph76%30.06 "HgN/A
12:00 AM61 °FCool.6 mph75%30.04 "HgN/A
11:00 PM
Aug 28
62 °FCool.5 mph74%30.02 "HgN/A
10:00 PM63 °FMild.3 mph68%30.02 "HgN/A
9:00 PM64 °FMild.3 mph67%30.01 "HgN/A
8:00 PM65 °FMild.5 mph63%29.98 "HgN/A
7:00 PM66 °FMild.2 mph60%29.97 "HgN/A
6:00 PM67 °FMild.3 mph55%29.96 "HgN/A
5:00 PM67 °FMild.3 mph54%29.94 "HgN/A
4:00 PM67 °FMild.5 mph51%29.93 "HgN/A
3:00 PM67 °FMild.3 mph49%29.93 "HgN/A
2:00 PM68 °FMild.5 mph44%29.92 "HgN/A
1:00 PM68 °FMild.5 mph45%29.90 "HgN/A
12:00 PM68 °FMild.3 mph45%29.91 "HgN/A
11:00 AM67 °FMild.3 mph52%29.92 "HgN/A
10:00 AM67 °FMild.3 mph57%29.93 "HgN/A
9:00 AM64 °FMild.2 mph63%29.93 "HgN/A
Weather by CustomWeather, © 2014

See weather overviewHow to use our weather pages